HSF704 RKTA-RKTA

Flight info

Callsign HSF704
Flight time N/A
Altitude 1000
Route CLOSED TRAFFIC
Aircraft DA40/L-SDE2E3FGHIRWXY/LB1

Departure

Time 2026-04-18 09:15
Airport Taean Airport (RKTA)

Arrival

Time N/A
Airport Taean Airport (RKTA)
Time Latitude Longitude Altitude Speed Heading
2026-04-18 09:10 36.59379 126.29510 7 ft 0 kts 51°
2026-04-18 09:11 36.59381 126.29513 7 ft 4 kts 48°
2026-04-18 09:11 36.59401 126.29526 5 ft 4 kts 351°
2026-04-18 09:11 36.59428 126.29530 4 ft 4 kts 46°
2026-04-18 09:12 36.59450 126.29550 2 ft 5 kts 353°
2026-04-18 09:12 36.59510 126.29507 -2 ft 17 kts 329°
2026-04-18 09:12 36.59624 126.29430 -7 ft 18 kts 329°
2026-04-18 09:12 36.59732 126.29351 -13 ft 18 kts 323°
2026-04-18 09:13 36.59784 126.29332 -10 ft 5 kts 41°
2026-04-18 09:13 36.59792 126.29374 -11 ft 5 kts 136°
2026-04-18 09:13 36.59783 126.29382 -12 ft 0 kts 149°
2026-04-18 09:13 36.59761 126.29400 -12 ft 21 kts 147°
2026-04-18 09:14 36.59478 126.29599 1 ft 69 kts 147°
2026-04-18 09:14 36.59008 126.29923 136 ft 80 kts 146°
2026-04-18 09:14 36.58539 126.30255 385 ft 73 kts 147°
2026-04-18 09:14 36.58113 126.30604 592 ft 72 kts 147°
2026-04-18 09:15 36.57736 126.31045 744 ft 81 kts 114°
2026-04-18 09:15 36.57754 126.31616 934 ft 81 kts 59°
2026-04-18 09:15 36.58080 126.32267 1041 ft 98 kts 56°
2026-04-18 09:15 36.58523 126.33010 1102 ft 111 kts 41°
2026-04-18 09:16 36.59256 126.33268 1105 ft 115 kts 347°
2026-04-18 09:16 36.59907 126.32708 1138 ft 112 kts 318°
2026-04-18 09:16 36.60486 126.32098 1182 ft 109 kts 320°
2026-04-18 09:16 36.61084 126.31519 1191 ft 106 kts 322°
2026-04-18 09:17 36.61320 126.31298 1172 ft 102 kts 322°
2026-04-18 09:17 36.61417 126.31206 1163 ft 98 kts 323°
2026-04-18 09:17 36.61939 126.30753 1035 ft 86 kts 326°
2026-04-18 09:17 36.62453 126.30354 839 ft 86 kts 329°
2026-04-18 09:18 36.62890 126.29911 711 ft 76 kts 302°
2026-04-18 09:18 36.62980 126.29292 621 ft 73 kts 266°
2026-04-18 09:18 36.62878 126.28701 563 ft 70 kts 244°
2026-04-18 09:18 36.62662 126.28162 489 ft 69 kts 244°
2026-04-18 09:19 36.62366 126.27764 428 ft 65 kts 200°
2026-04-18 09:19 36.61928 126.27887 346 ft 68 kts 149°
2026-04-18 09:19 36.61538 126.28192 277 ft 65 kts 147°
2026-04-18 09:19 36.61131 126.28479 254 ft 68 kts 152°
2026-04-18 09:20 36.60703 126.28757 222 ft 70 kts 153°
2026-04-18 09:20 36.60267 126.29051 162 ft 72 kts 150°
2026-04-18 09:20 36.59833 126.29351 44 ft 71 kts 150°
2026-04-18 09:20 36.59425 126.29626 19 ft 62 kts 144°
2026-04-18 09:21 36.59007 126.29921 109 ft 76 kts 151°
2026-04-18 09:21 36.58562 126.30248 331 ft 74 kts 146°
2026-04-18 09:21 36.58128 126.30607 538 ft 74 kts 144°
2026-04-18 09:21 36.57733 126.31028 648 ft 77 kts 119°
2026-04-18 09:22 36.57468 126.31604 621 ft 87 kts 174°
2026-04-18 09:22 36.57202 126.31101 673 ft 82 kts 298°
2026-04-18 09:22 36.57658 126.30900 484 ft 70 kts 322°
2026-04-18 09:22 36.58063 126.30574 267 ft 71 kts 323°
2026-04-18 09:23 36.58485 126.30282 159 ft 68 kts 329°
2026-04-18 09:23 36.58895 126.30001 54 ft 66 kts 329°